[[{"header":{"parameterUnit":"m.s-1","parameterCategory":1,"la1":30.2991,"la2":30.254,"lo1":-89.0895,"lo2":-89.0444,"dy":0.0017,"dx":0.0017,"nx":28,"ny":28,"refTime":"2025-04-23T21:00:00:Z","depth":0,"parameterNumber":2,"parameterNumberName":"U-component_of_WINDS"},"data":[0,0,0,0,0,0,0,0,0,0,0,0,0,0,0,0,0,0,0,0,0,0,0,0,0,0,0,0,0,0,0,0,0,0,0,0,0,0,0,0,0,0,0,0,0,0,0,0,0,0,0,0,0,0,0,0,0,0,-3.3631,-3.3632,0,-3.3691,-3.3691,-3.3692,-3.3699,-3.3698,-3.3698,-3.3697,-3.3755,-3.3757,-3.3759,0,0,0,0,0,0,0,0,0,0,0,0,0,-3.3521,-3.3523,-3.3631,-3.3632,-3.3632,-3.3691,-3.3691,-3.3692,-3.3699,-3.3698,-3.3697,-3.3697,-3.3754,-3.3757,-3.3759,0,0,0,0,0,0,0,0,0,0,0,0,0,-3.3573,-3.3523,-3.3631,-3.3643,-3.3644,-3.369,-3.3691,-3.3692,-3.3699,-3.3698,-3.3697,-3.3696,-3.3753,-3.3756,-3.376,-3.3797,0,0,-3.3769,-3.377,0,0,0,0,0,0,0,0,-3.357,-3.3577,-3.364,-3.3642,-3.3644,-3.3686,-3.3674,-3.3727,-3.3699,-3.3678,-3.3697,-3.3696,-3.3733,-3.3737,-3.375,-3.3799,-3.3802,-3.3769,-3.3771,-3.3773,-3.3774,0,0,0,0,0,0,0,-3.3566,-3.3575,-3.3654,-3.3641,-3.3643,-3.3645,-3.3651,-3.3684,-3.3709,-3.368,-3.3681,-3.3688,-3.3733,-3.3747,-3.3752,-3.3803,-3.3769,-3.3772,-3.3774,-3.3775,-3.3885,-3.3886,0,0,0,0,0,0,-3.3561,-3.3571,-3.3652,-3.3656,-3.3604,-3.3647,-3.3655,-3.3674,-3.3709,-3.3714,-3.3688,-3.3688,-3.3742,-3.3748,-3.3754,-3.3799,-3.3773,-3.3776,-3.3777,-3.3884,-3.3885,-3.3887,0,0,0,0,0,0,-3.3559,-3.3568,-3.365,-3.3614,-3.3625,-3.365,-3.3671,-3.3675,-3.3689,-3.3716,-3.372,-3.3698,-3.3742,-3.3749,-3.3786,-3.3801,-3.3777,-3.378,-3.3883,-3.3885,-3.3886,-3.389,0,0,0,0,0,0,-3.3555,-3.3567,-3.3582,-3.3614,-3.3627,-3.3682,-3.3672,-3.3677,-3.3695,-3.3695,-3.3726,-3.373,-3.3742,-3.3782,-3.3789,-3.3805,-3.3782,-3.3882,-3.3884,-3.3886,-3.3889,-3.3892,-3.3894,0,0,0,0,0,-3.3551,-3.358,-3.3582,-3.3592,-3.3645,-3.3683,-3.3689,-3.3703,-3.3696,-3.3711,-3.3728,-3.3729,-3.3799,-3.3785,-3.3794,-3.3811,-3.3881,-3.3883,-3.3885,-3.3887,-3.3891,-3.3894,0,0,0,0,0,0,-3.3546,-3.3584,-3.3587,-3.3627,-3.3652,-3.3684,-3.3702,-3.3707,-3.3733,-3.3731,-3.3747,-3.3754,-3.379,-3.3804,-3.3788,-3.3849,-3.3839,-3.3843,-3.3838,-3.3841,-3.3844,-3.3839,-3.3785,0,0,0,0,0,-3.355,-3.3578,-3.361,-3.3642,-3.3654,-3.3676,-3.3693,-3.3702,-3.3727,-3.3737,-3.3757,-3.3781,-3.3809,-3.3826,-3.3853,-3.3892,-3.3898,-3.3908,-3.3911,-3.3913,-3.3916,-3.3937,-3.3942,-3.3894,-3.3894,-3.3894,0,0,-3.3558,-3.3582,-3.3598,-3.3641,-3.3661,-3.3689,-3.3685,-3.3714,-3.3735,-3.3742,-3.3777,-3.3793,-3.3821,-3.3859,-3.3877,-3.3872,-3.3931,-3.3916,-3.3917,-3.3919,-3.394,-3.3945,-3.3949,-3.3896,-3.3896,-3.3895,0,0,-3.3586,-3.3607,-3.3636,-3.3657,-3.3688,-3.3703,-3.371,-3.3742,-3.3753,-3.379,-3.3796,-3.3821,-3.3868,-3.3887,-3.3903,-3.3941,-3.3943,-3.395,-3.3963,-3.3984,-3.3987,-3.3991,-3.4003,-3.4008,-3.3953,-3.3953,-3.3953,0,-3.359,-3.3633,-3.365,-3.368,-3.3699,-3.3708,-3.3738,-3.3757,-3.3794,-3.3807,-3.3802,-3.3862,-3.3881,-3.3924,-3.3934,-3.3947,-3.3955,-3.3945,-3.3986,-3.3989,-3.3993,-3.4005,-3.4009,-3.3953,-3.3953,-3.3953,-3.3953,0,-3.3638,-3.3668,-3.3687,-3.3725,-3.3746,-3.3775,-3.3796,-3.3816,-3.3824,-3.3839,-3.3876,-3.3901,-3.3933,-3.3944,-3.3951,-3.3988,-3.3984,-3.3983,-3.3972,-3.3997,-3.4009,-3.4014,-3.3954,-3.3954,-3.3954,-3.3954,0,0,-3.3661,-3.371,-3.3716,-3.3734,-3.377,-3.3793,-3.3823,-3.3856,-3.3871,-3.3898,-3.3923,-3.3964,-3.3963,-3.3981,-3.3991,-3.401,-3.4038,-3.4006,-3.4007,-3.401,-3.4079,-3.4078,-3.4084,-3.404,-3.4041,-3.4042,-3.4076,0,-3.3692,-3.3746,-3.3763,-3.3808,-3.3836,-3.3847,-3.3873,-3.3898,-3.3914,-3.3939,-3.3956,-3.3984,-3.3982,-3.3993,-3.4012,-3.403,-3.4051,-3.4028,-3.4062,-3.4063,-3.4053,-3.409,-3.4089,-3.412,-3.4081,-3.4082,-3.4082,0,-3.3734,-3.3762,-3.3811,-3.3844,-3.3856,-3.388,-3.3911,-3.3936,-3.3964,-3.3975,-3.3997,-3.4006,-3.4037,-3.4027,-3.4071,-3.4054,-3.407,-3.4081,-3.4083,-3.4085,-3.4072,-3.4091,-3.413,-3.4134,-3.409,-3.4089,-3.4088,0,-3.3745,-3.3795,-3.3831,-3.3846,-3.3886,-3.3902,-3.3919,-3.3947,-3.3966,-3.3994,-3.4006,-3.4037,-3.4053,-3.4077,-3.4094,-3.4086,-3.4136,-3.4127,-3.4144,-3.4143,-3.4152,-3.415,-3.4192,-3.4165,-3.4165,-3.4165,-3.4165,0,-3.3776,-3.3804,-3.3836,-3.3857,-3.389,-3.391,-3.3942,-3.396,-3.3985,-3.4009,-3.4021,-3.4044,-3.4066,-3.4092,-3.4106,-3.4139,-3.4147,-3.4156,-3.4158,-3.4153,-3.4152,-3.4162,-3.4159,-3.4166,-3.4166,-3.4166,-3.4165,0,-3.3792,-3.3815,-3.3854,-3.389,-3.3899,-3.3922,-3.3952,-3.3973,-3.3991,-3.4022,-3.403,-3.4057,-3.4089,-3.4109,-3.4148,-3.4158,-3.4194,-3.4197,-3.4184,-3.4185,-3.42,-3.4198,-3.4248,-3.4255,-3.4225,-3.4225,-3.4225,0,-3.3809,-3.3832,-3.3871,-3.3889,-3.3907,-3.3936,-3.3955,-3.3976,-3.3996,-3.4032,-3.4048,-3.4081,-3.4108,-3.4157,-3.418,-3.421,-3.4213,-3.4229,-3.4217,-3.4212,-3.4212,-3.4209,-3.4211,-3.4229,-3.423,-3.423,-3.423,0,-3.3837,-3.3848,-3.3876,-3.3909,-3.3933,-3.396,-3.3986,-3.4,-3.4026,-3.4048,-3.408,-3.4101,-3.4143,-3.4174,-3.4207,-3.4225,-3.4231,-3.4234,-3.4239,-3.4233,-3.4224,-3.4228,-3.4187,-3.4232,-3.4232,-3.4232,-3.4232,-3.4231,-3.3854,-3.3874,-3.3905,-3.3937,-3.396,-3.3984,-3.4006,-3.4027,-3.4055,-3.4091,-3.4102,-3.4136,-3.4165,-3.421,-3.4228,-3.4255,-3.4253,-3.4261,-3.4262,-3.4263,-3.4263,-3.4222,-3.4261,-3.4261,-3.4261,-3.4261,-3.4261,0,-3.3881,-3.3902,-3.3931,-3.3969,-3.3994,-3.4,-3.403,-3.405,-3.408,-3.4107,-3.4134,-3.4172,-3.4203,-3.4229,-3.4262,-3.4278,-3.4282,-3.4285,-3.4283,-3.4287,-3.4263,-3.4255,-3.4282,-3.4282,-3.4282,-3.4282,-3.4282,-3.4282,-3.3898,-3.3934,-3.3948,-3.3995,-3.4015,-3.4049,-3.4066,-3.4089,-3.4111,-3.4153,-3.4179,-3.4197,-3.4223,-3.4258,-3.4287,-3.4294,-3.4305,-3.4307,-3.4315,-3.4291,-3.4289,-3.4287,-3.4279,-3.431,-3.431,-3.4336,-3.4336,-3.4336]},{"header":{"parameterUnit":"m.s-1","parameterCategory":1,"la1":30.2991,"la2":30.254,"lo1":-89.0895,"lo2":-89.0444,"dy":0.0017,"dx":0.0017,"nx":28,"ny":28,"refTime":"2025-04-23T21:00:00:Z","depth":0,"parameterNumber":3,"parameterNumberName":"V-component_of_WINDS"},"data":[0,0,0,0,0,0,0,0,0,0,0,0,0,0,0,0,0,0,0,0,0,0,0,0,0,0,0,0,0,0,0,0,0,0,0,0,0,0,0,0,0,0,0,0,0,0,0,0,0,0,0,0,0,0,0,0,0,0,3.6671,3.6672,0,3.6781,3.6783,3.6784,3.6806,3.6805,3.6805,3.6804,3.6912,3.6915,3.6919,0,0,0,0,0,0,0,0,0,0,0,0,0,3.6475,3.6478,3.6671,3.6672,3.6673,3.6781,3.6783,3.6784,3.6806,3.6805,3.6804,3.6803,3.6911,3.6915,3.6919,0,0,0,0,0,0,0,0,0,0,0,0,0,3.657,3.648,3.667,3.6698,3.6701,3.6781,3.6783,3.6785,3.6807,3.6805,3.6804,3.6803,3.6909,3.6915,3.692,3.6979,0,0,3.6937,3.6939,0,0,0,0,0,0,0,0,3.6565,3.6577,3.6692,3.6696,3.67,3.6779,3.6753,3.6849,3.6807,3.6766,3.6804,3.6802,3.6868,3.6877,3.69,3.6984,3.6988,3.6937,3.6941,3.6943,3.6944,0,0,0,0,0,0,0,3.6558,3.6573,3.6714,3.6694,3.6699,3.6703,3.6715,3.6772,3.6823,3.677,3.6772,3.6785,3.687,3.6895,3.6903,3.699,3.6937,3.6942,3.6945,3.6947,3.7128,3.713,0,0,0,0,0,0,3.6547,3.6567,3.6711,3.6718,3.6628,3.6708,3.6721,3.6755,3.6822,3.6831,3.6786,3.6785,3.6886,3.6897,3.6907,3.6981,3.6943,3.6948,3.6951,3.7127,3.7128,3.713,0,0,0,0,0,0,3.6543,3.656,3.6706,3.6643,3.6662,3.6712,3.675,3.6758,3.6783,3.6834,3.6843,3.6802,3.6886,3.6899,3.6961,3.6985,3.695,3.6955,3.7125,3.7127,3.7129,3.7129,0,0,0,0,0,0,3.6537,3.6558,3.6582,3.6643,3.6665,3.676,3.6751,3.6761,3.6793,3.6793,3.6852,3.6861,3.6886,3.6953,3.6967,3.6992,3.696,3.7123,3.7126,3.7129,3.7127,3.7131,3.7134,0,0,0,0,0,3.653,3.6576,3.6583,3.66,3.6696,3.6761,3.6774,3.6803,3.6794,3.6818,3.6852,3.6859,3.698,3.6959,3.6975,3.7002,3.7122,3.7125,3.7128,3.7125,3.713,3.7134,0,0,0,0,0,0,3.6514,3.6584,3.6593,3.666,3.6705,3.6765,3.6796,3.6807,3.6854,3.6852,3.6885,3.6899,3.6959,3.6986,3.6962,3.7063,3.705,3.7057,3.7043,3.7047,3.7051,3.7043,3.6964,0,0,0,0,0,3.6519,3.6567,3.6625,3.6679,3.6701,3.6745,3.6774,3.6794,3.684,3.6859,3.6897,3.694,3.6989,3.702,3.7067,3.7131,3.7144,3.7158,3.7161,3.7164,3.7169,3.7206,3.7212,3.7141,3.7141,3.7141,0,0,3.6528,3.6572,3.6601,3.6677,3.6714,3.6762,3.676,3.6811,3.6847,3.6866,3.6928,3.6957,3.7008,3.7072,3.7102,3.7097,3.7192,3.7168,3.717,3.7174,3.721,3.7217,3.7222,3.7144,3.7143,3.7143,0,0,3.657,3.6608,3.6658,3.6696,3.6752,3.6781,3.6793,3.6852,3.6873,3.6936,3.6951,3.6993,3.7075,3.7112,3.7141,3.7198,3.7206,3.7212,3.7231,3.7266,3.7272,3.7277,3.7297,3.7304,3.7217,3.7217,3.7217,0,3.6574,3.6649,3.6682,3.6733,3.6766,3.6787,3.6837,3.6871,3.6939,3.6961,3.6955,3.706,3.7096,3.7169,3.7183,3.7206,3.722,3.7205,3.7268,3.7274,3.7279,3.7299,3.7307,3.7218,3.7218,3.7218,3.7218,0,3.6651,3.6703,3.6736,3.6804,3.6841,3.6891,3.693,3.6963,3.698,3.7009,3.7072,3.7116,3.7173,3.7192,3.7207,3.7267,3.7263,3.7262,3.725,3.7286,3.7305,3.7313,3.7218,3.7218,3.7218,3.7218,0,0,3.6685,3.6772,3.6783,3.6815,3.6879,3.692,3.697,3.7028,3.7056,3.7102,3.7146,3.7216,3.7216,3.7249,3.7269,3.73,3.7343,3.7296,3.7297,3.7303,3.7412,3.7412,3.742,3.7349,3.735,3.7352,3.7408,0,3.6735,3.6829,3.6861,3.6938,3.6986,3.7007,3.7052,3.7095,3.7124,3.7168,3.7199,3.7249,3.7245,3.7266,3.7297,3.7331,3.7365,3.7327,3.7388,3.739,3.7375,3.743,3.7431,3.7481,3.7415,3.7417,3.7418,0,3.6806,3.6856,3.6939,3.6998,3.702,3.7059,3.7115,3.7158,3.7207,3.7226,3.7264,3.7282,3.7335,3.732,3.7393,3.7367,3.7394,3.7414,3.7417,3.7423,3.7406,3.7439,3.7498,3.7506,3.743,3.7429,3.7428,0,3.6823,3.6911,3.6972,3.6998,3.7069,3.7097,3.7127,3.7176,3.7209,3.7257,3.7279,3.7332,3.736,3.74,3.7432,3.7418,3.7502,3.749,3.7519,3.7518,3.7535,3.7534,3.76,3.7552,3.7552,3.7552,3.7552,0,3.6876,3.6926,3.6981,3.7019,3.7075,3.711,3.7164,3.7196,3.7239,3.7283,3.7303,3.7343,3.7382,3.7427,3.7451,3.7508,3.7521,3.7537,3.7543,3.7535,3.7533,3.7553,3.755,3.7554,3.7554,3.7553,3.7553,0,3.6905,3.6944,3.7012,3.7074,3.7091,3.713,3.7182,3.7219,3.7249,3.7304,3.7318,3.7365,3.7419,3.7454,3.7522,3.7538,3.7601,3.7606,3.7585,3.7588,3.7614,3.7611,3.7696,3.7709,3.7652,3.7653,3.7653,0,3.6936,3.6975,3.7042,3.7074,3.7105,3.7155,3.719,3.7225,3.726,3.7321,3.735,3.7405,3.7452,3.7536,3.7575,3.7628,3.7634,3.766,3.7642,3.7633,3.7635,3.7632,3.7636,3.7663,3.7663,3.7663,3.7664,0,3.6988,3.7006,3.7055,3.7112,3.7153,3.7199,3.7244,3.7268,3.7312,3.735,3.7406,3.7442,3.7513,3.7568,3.7624,3.7653,3.7666,3.7669,3.7679,3.7671,3.7658,3.7666,3.7593,3.7667,3.7667,3.7667,3.7666,3.7666,3.7019,3.7055,3.7109,3.7163,3.7202,3.7245,3.7283,3.7318,3.7367,3.7428,3.7446,3.7505,3.7554,3.7631,3.7662,3.7707,3.7704,3.7718,3.7721,3.7724,3.7724,3.7651,3.7717,3.7717,3.7717,3.7717,3.7717,0,3.7072,3.7108,3.7158,3.7223,3.7266,3.7275,3.7327,3.7362,3.7414,3.7459,3.7505,3.757,3.7623,3.7667,3.7722,3.775,3.7757,3.7763,3.7761,3.7768,3.7724,3.771,3.7757,3.7757,3.7757,3.7756,3.7756,3.7756,3.7105,3.7167,3.7191,3.7273,3.7307,3.7367,3.7395,3.7434,3.7471,3.7543,3.7589,3.7617,3.7662,3.7721,3.777,3.7781,3.78,3.7805,3.7818,3.7775,3.7771,3.7767,3.7754,3.7809,3.7809,3.7859,3.7859,3.7859]}]]